Location: Rumah Long Bangan
(2.8362°N, 113.7519°E)
Time: 05:48:27
(UTC+00:00)

Lacrosse 5 - Pass Details

Date: 24 October 2021
Orbit: 714 x 724 km, 57.0° (Epoch: 28 August)

Event Time Altitude Azimuth Distance (km) Brightness Sun altitude
Rises 12:15:54 0° 245° (WSW) 3,127 6.2 -31.6°
Reaches altitude 10° 12:19:20 10° 269° (W) 2,205 5.2 -32.4°
Maximum altitude 12:22:05 15° 302° (WNW) 1,906 4.5 -33.1°
Enters shadow 12:23:53 12° 325° (NW) 2,039 4.4 -33.5°
